Regional Weather Roundup
Issued by NWS

Home | Current Version | Previous Version | Graphics & Text | Print | Product List | Glossary On
Versions: 1 2 3 4 5 6 7 8 9 10 11 12 13 14 15 16 17 18 19 20 21 22 23 24 25 26 27 28 29 30 31 32 33 34 35 36 37 38 39 40 41 42 43 44 45 46 47 48 49 50
000
ASUS43 KBIS 311602
RWRND

NORTH DAKOTA REGIONAL WEATHER ROUNDUP
NATIONAL WEATHER SERVICE BISMARCK ND
1100 AM CDT MON AUG 31 2015

NOTE: "FAIR" INDICATES FEW OR NO CLOUDS BELOW 12,000 FEET WITH NO
SIGNIFICANT WEATHER AND/OR OBSTRUCTIONS TO VISIBILITY.


NDZ001>003-009>011-017-311700-
NORTHWEST NORTH DAKOTA

CITY           SKY/WX    TMP DP  RH WIND       PRES   REMARKS
WILLISTON      SUNNY     69  43  38 W15       29.89R
MINOT          SUNNY     70  50  49 W17       29.82R
MINOT AFB      SUNNY     71  50  48 W18G24    29.81R
$$

NDZ018>021-031>035-040>046-311700-
SOUTHWEST NORTH DAKOTA

CITY           SKY/WX    TMP DP  RH WIND       PRES   REMARKS
BISMARCK       PTSUNNY   73  57  57 N9        29.86R
DICKINSON      SUNNY     68  49  50 W16       29.93R
GARRISON         N/A     69  50  50 W17G23    29.87R
HETTINGER ARPT PTSUNNY   70  47  43 N15G21    29.96R
$$

NDZ004>008-012>016-024-026-027-054-311700-
NORTHEAST NORTH DAKOTA

CITY           SKY/WX    TMP DP  RH WIND       PRES   REMARKS
GRAND FORKS    CLOUDY    71  65  81 SW7       29.71R
GRND FRKS AFB  MOSUNNY   76  68  77 N9        29.72R
DEVILS LAKE    PTSUNNY   70  55  60 NW18      29.77R
$$

NDZ022-023-025-028>030-036>039-047>053-311700-
SOUTHEAST NORTH DAKOTA

CITY           SKY/WX    TMP DP  RH WIND       PRES   REMARKS
FARGO          SUNNY     79  63  57 SW13      29.73R
JAMESTOWN      PTSUNNY   73  61  65 NW23G32   29.78R
$$



USA.gov is the U.S. government's official web portal to all federal, state and local government web resources and services.